This is the latest recevied weather packets stored in our database for station/object SP1BMW-13. If no packets are shown the sender has not sent any weather packets the latest 1 day(s).
| Time | Temp. | Humidity | Pressure | Rain* | Wind** | Luminosity | Snow |
|---|---|---|---|---|---|---|---|
| 1777978067 | 13.33° C | 90% | 1009 hPa | 0 mm | 0.45 m/s, 332° | 279 W/m² | - |
| 1777978007 | 13.33° C | 90% | 1008.9 hPa | 0 mm | 0.89 m/s, 352° | 283 W/m² | - |
| 1777977946 | 13.33° C | 91% | 1008.9 hPa | 0 mm | 0.45 m/s, 39° | 283 W/m² | - |
| 1777977887 | 13.33° C | 90% | 1008.9 hPa | 0 mm | 0 m/s | 277 W/m² | - |
| 1777977826 | 13.33° C | 90% | 1009 hPa | 0 mm | 0.89 m/s, 24° | 269 W/m² | - |
| 1777977767 | 13.33° C | 91% | 1009 hPa | 0 mm | 0.45 m/s, 37° | 262 W/m² | - |
| 1777977706 | 13.33° C | 91% | 1009 hPa | 0 mm | 0.89 m/s, 24° | 256 W/m² | - |
| 1777977646 | 13.33° C | 91% | 1009 hPa | 0 mm | 0 m/s | 249 W/m² | - |
| 1777977587 | 13.33° C | 91% | 1009 hPa | 0 mm | 0 m/s | 243 W/m² | - |
| 1777977526 | 13.33° C | 91% | 1009.2 hPa | 0 mm | 0.89 m/s, 32° | 235 W/m² | - |
| 1777977467 | 13.33° C | 91% | 1009 hPa | 0 mm | 0.45 m/s, 16° | 232 W/m² | - |
| 1777977406 | 13.33° C | 91% | 1009 hPa | 0 mm | 0.45 m/s, 31° | 229 W/m² | - |
| 1777977346 | 13.33° C | 91% | 1009.1 hPa | 0 mm | 0 m/s | 228 W/m² | - |
| 1777977294 | 13.33° C | 91% | 1009.2 hPa | 0 mm | 0.89 m/s, 338° | 228 W/m² | - |
| 1777977227 | 13.33° C | 92% | 1009.1 hPa | 0 mm | 0.45 m/s, 352° | 224 W/m² | - |
| 1777977167 | 13.33° C | 92% | 1009.2 hPa | 0 mm | 0 m/s | 220 W/m² | - |
| 1777977107 | 13.33° C | 92% | 1009.2 hPa | 0 mm | 0 m/s | 214 W/m² | - |
| 1777977047 | 13.33° C | 92% | 1009.2 hPa | 0 mm | 0 m/s | 206 W/m² | - |
| 1777976987 | 13.33° C | 92% | 1009.3 hPa | 0 mm | 0.45 m/s, 17° | 202 W/m² | - |
| 1777976927 | 13.33° C | 92% | 1009.3 hPa | 0 mm | 0 m/s | 206 W/m² | - |
| 1777976867 | 13.33° C | 92% | 1009.3 hPa | 0 mm | 0.45 m/s, 38° | 215 W/m² | - |
| 1777976807 | 13.33° C | 91% | 1009.4 hPa | 0 mm | 0.45 m/s, 6° | 226 W/m² | - |
| 1777976747 | 13.33° C | 92% | 1009.3 hPa | 0 mm | 0.89 m/s, 41° | 231 W/m² | - |
| 1777976687 | 13.33° C | 92% | 1009.5 hPa | 0 mm | 0 m/s | 232 W/m² | - |
| 1777976663 | 13.33° C | 92% | 1009.3 hPa | 0 mm | 0.45 m/s, 38° | 221 W/m² | - |
* Rain latest hour (hover to see other rain measurements)
** Current wind speed in m/s (hover to see current wind gust speed)